Wind_Speed
26 25 26 26 24 24 25 24 23 22 20 20 19 19 18 18 17 17 17 17 16 15 17 18 18 18 16 16 16 14 14 13 13 13 13 13 13 11 10 11 12 12 12 11 11 11 10 11 11 10 9 9 11 10 7 6 8 7 6 7 7 8 9 8 6 11 15 13 10 10 9 9 10 9 8 7 7 8 10 12 13 14 15 17 17
27 24 24 26 25 24 24 24 24 23 22 20 19 19 19 18 17 16 17 17 17 16 16 18 18 18 18 17 17 16 16 15 13 14 14 14 14 13 12 12 13 13 14 13 13 13 11 11 12 12 11 11 11 12 11 8 8 9 9 10 10 10 10 11 10 10 14 15 13 13 11 10 11 10 9 8 10 11 12 14 14 12 13 17 16
27 23 21 24 24 22 23 24 24 24 23 22 20 18 19 19 18 18 17 18 19 18 18 18 17 17 17 17 17 17 18 17 15 14 15 15 14 14 13 13 13 14 15 14 14 14 12 10 10 12 12 12 12 12 12 12 11 11 11 11 13 13 12 12 13 13 15 15 14 15 13 12 12 12 12 13 14 14 14 14 13 12 13 15 15
24 24 23 22 21 18 19 21 24 24 23 23 22 19 18 18 19 20 19 18 19 20 20 20 19 18 18 17 18 18 18 19 18 17 16 15 15 15 14 14 15 15 15 15 13 14 15 12 11 10 10 11 12 12 12 12 13 14 13 11 11 13 15 16 16 17 17 15 14 15 14 14 16 16 15 16 17 15 13 13 14 14 14 14 15
12 18 20 20 18 15 13 14 17 21 21 20 20 20 19 19 19 20 21 20 19 19 21 22 21 20 20 19 19 19 18 19 19 19 18 16 15 15 15 15 15 15 15 16 15 14 15 15 13 12 12 12 13 13 13 13 13 14 15 14 12 12 14 16 16 15 16 15 15 16 16 16 18 19 18 18 18 16 13 14 16 17 16 15 15
1 3 7 11 12 11 11 10 11 14 15 14 13 12 12 16 19 21 23 22 20 20 21 23 23 22 22 21 21 20 19 18 19 19 19 18 17 16 16 15 15 16 16 15 14 14 15 15 15 15 14 14 14 14 14 14 14 14 15 15 14 13 12 13 12 12 14 15 15 17 18 18 19 21 20 18 19 20 18 19 19 18 17 16 13
8 6 4 4 5 6 8 8 7 8 10 9 9 7 4 5 9 15 22 26 24 22 21 23 24 23 23 23 23 22 21 20 19 20 19 18 19 19 19 18 17 17 17 16 15 15 15 16 16 16 16 16 15 15 14 14 15 15 14 14 15 15 14 13 12 12 14 16 18 19 21 20 20 21 21 19 19 19 19 20 20 20 20 18 15
19 15 12 9 5 2 3 3 3 6 8 8 9 10 7 4 4 6 12 22 24 24 24 23 25 26 25 24 25 24 23 23 22 22 22 20 20 20 21 20 20 19 19 19 18 17 17 17 18 18 17 17 17 16 16 16 16 16 16 16 16 16 17 16 15 14 14 16 19 20 21 21 21 20 20 19 18 17 18 19 20 22 24 21 18
23 22 19 16 13 9 4 2 1 3 7 9 11 12 11 9 5 5 5 12 17 19 22 22 24 28 28 25 26 26 26 26 25 25 25 25 24 23 22 22 22 21 20 20 20 20 19 19 20 20 19 19 18 18 18 18 19 19 19 18 17 17 18 18 18 17 16 16 17 17 17 19 20 20 19 18 17 19 22 23 23 25 25 23 19
23 24 22 19 16 15 12 8 5 2 2 5 8 11 13 14 12 7 5 8 12 13 16 17 17 24 30 29 27 28 28 27 27 26 27 27 27 26 25 23 23 23 23 21 21 21 21 20 20 20 20 21 21 21 20 20 20 21 20 19 19 19 19 20 20 20 20 19 19 18 17 18 20 19 18 19 19 21 25 25 23 23 23 21 19
23 25 25 21 17 16 17 15 12 8 5 2 1 4 10 14 17 15 10 10 13 13 14 16 15 17 26 32 31 29 30 30 28 28 28 28 29 29 29 27 25 24 25 24 23 23 22 22 21 21 21 21 22 22 23 23 23 23 22 22 22 21 21 22 22 22 21 21 21 20 18 20 22 21 21 22 22 22 24 23 19 16 15 15 15
23 25 25 21 17 15 16 17 17 16 12 8 5 3 2 7 13 18 17 15 16 16 16 18 19 16 18 27 34 33 32 31 30 29 29 28 29 30 31 30 28 27 26 26 26 25 24 23 23 22 22 21 21 22 25 27 27 27 26 25 25 24 24 24 23 23 22 21 21 21 21 23 24 24 23 23 21 20 21 20 17 14 14 13 14
22 24 24 21 17 14 14 15 16 16 15 13 10 7 5 4 6 9 12 13 15 18 19 21 23 21 16 17 25 30 33 33 31 30 29 29 30 31 31 32 31 30 28 27 28 28 27 27 25 25 24 23 22 22 23 25 27 29 30 29 28 28 27 27 26 25 25 24 23 24 25 25 25 27 27 24 22 22 22 22 21 20 19 18 19
22 22 22 20 17 14 13 14 14 12 11 10 10 10 8 6 6 6 6 8 12 17 20 21 23 24 20 14 13 17 23 28 31 32 31 30 30 32 33 33 33 33 31 30 29 29 29 29 28 28 27 26 25 24 23 22 22 25 29 32 32 31 30 30 30 29 29 29 28 29 30 30 30 31 30 27 24 23 23 23 23 22 23 24 26
22 20 19 16 14 13 14 14 13 10 8 6 6 7 9 9 8 7 6 6 9 12 15 18 21 22 21 18 15 13 14 18 24 29 33 33 33 33 35 35 33 33 33 32 31 30 30 30 30 30 29 28 28 27 26 25 23 22 24 28 31 33 34 33 32 32 32 33 33 34 34 35 35 36 35 33 31 29 28 27 26 24 26 28 29
20 18 16 15 13 12 14 15 15 12 9 7 7 7 7 9 9 8 7 6 7 8 10 13 17 20 20 19 19 19 17 16 17 20 25 29 31 33 36 37 35 33 33 34 33 32 31 31 31 31 31 30 29 28 27 27 27 26 25 26 27 30 32 33 32 33 33 33 34 34 34 35 35 36 37 37 36 37 35 32 29 28 27 27 27
20 18 16 15 15 13 13 14 14 13 13 11 10 10 9 9 9 8 8 8 7 7 7 9 12 15 17 18 19 21 22 21 19 18 19 21 23 26 31 35 37 36 35 35 35 35 33 33 32 32 32 32 31 30 28 27 28 29 29 28 28 29 31 31 31 32 33 33 33 33 32 31 30 30 32 32 34 36 34 31 31 31 26 21 22
18 18 16 15 16 14 13 14 12 11 13 13 12 11 11 10 9 9 11 12 10 9 8 9 9 10 12 14 16 19 22 23 23 22 22 21 21 22 24 28 33 36 37 36 36 36 36 35 34 33 33 32 31 30 29 29 29 30 30 29 29 30 32 32 30 30 31 31 31 30 29 28 28 29 30 29 30 32 34 34 33 30 24 20 22
15 16 16 15 16 14 13 14 13 8 8 11 13 13 14 14 13 12 14 15 13 11 11 11 11 10 10 12 14 17 20 22 23 24 24 24 23 23 23 25 28 32 35 36 36 36 37 38 37 36 35 34 33 31 30 30 31 32 33 31 30 33 35 33 30 30 29 29 29 29 29 29 29 29 29 29 28 30 33 36 35 31 27 25 26
13 14 14 14 14 13 12 14 14 10 6 7 9 10 12 13 13 13 13 14 13 12 12 12 13 14 13 13 14 15 17 20 22 23 24 25 25 25 25 25 27 29 30 32 33 34 35 36 38 39 39 38 37 36 34 33 32 34 35 34 34 38 39 33 30 31 32 31 31 31 31 31 30 30 30 29 29 30 31 33 34 34 33 30 29
10 11 12 13 13 13 13 14 13 11 9 8 7 7 9 9 8 8 9 10 11 12 12 13 14 15 15 15 16 17 18 20 20 20 20 21 22 24 26 27 29 28 28 28 29 31 33 34 36 38 39 40 40 40 39 38 36 36 36 38 40 42 40 35 32 33 33 33 34 34 33 32 31 30 30 30 30 30 30 31 32 34 35 34 32
8 8 10 11 12 13 14 13 13 11 11 10 9 8 9 9 7 7 8 9 11 12 13 14 15 16 16 16 17 18 19 20 19 17 16 17 19 21 24 26 27 28 27 27 28 29 30 32 34 36 37 38 38 39 39 38 38 39 40 41 42 42 40 37 35 33 32 33 34 34 33 31 30 29 29 30 30 30 31 32 32 32 34 36 35
9 5 7 10 10 11 12 12 13 12 11 11 12 12 12 11 9 9 9 9 11 12 12 13 15 16 17 17 17 17 17 18 18 18 17 16 17 19 22 23 25 26 27 29 30 29 28 28 29 31 33 35 36 36 35 35 35 37 39 40 41 41 41 39 36 33 32 33 34 34 34 32 31 30 30 29 28 28 29 31 33 33 34 35 35
12 6 5 6 8 10 11 11 13 12 10 11 13 14 15 14 13 13 11 9 9 11 12 13 14 15 17 18 18 18 17 16 15 16 17 18 19 20 20 20 21 22 25 29 31 31 30 29 28 28 28 29 30 31 31 31 32 33 35 37 39 39 39 39 37 34 32 32 33 34 35 34 32 32 31 30 28 27 27 28 30 33 34 35 36
14 11 7 4 6 9 11 11 13 12 11 12 14 15 17 17 16 15 12 10 12 14 15 16 16 16 16 16 17 19 18 17 16 15 15 17 20 21 19 18 18 20 23 27 29 29 31 32 32 32 30 28 27 28 28 28 28 28 30 32 34 35 34 35 36 33 31 31 33 34 35 35 34 34 33 32 31 30 30 30 30 31 32 32 34
13 13 11 6 6 9 9 11 12 12 11 13 15 15 17 17 17 16 15 16 17 17 16 16 17 18 17 16 16 18 19 18 15 14 15 17 17 19 19 19 20 21 23 25 27 28 30 31 32 34 34 33 32 32 31 31 30 30 30 31 32 33 33 33 33 32 32 33 33 34 36 37 36 36 34 32 32 32 33 32 32 33 33 32 31
12 13 13 10 6 7 8 10 11 11 11 13 15 17 18 18 17 18 19 21 21 18 17 18 19 20 20 20 20 20 19 19 16 12 14 17 18 18 19 20 21 22 22 22 22 24 26 28 28 29 30 32 33 34 35 36 36 37 37 37 37 38 37 36 35 35 35 36 35 36 39 39 37 36 34 32 33 34 33 31 31 32 34 32 31
12 12 14 12 6 5 7 7 9 11 12 13 16 18 18 19 19 19 20 20 21 21 20 20 20 21 22 23 23 23 23 20 17 13 13 17 20 22 22 21 20 19 18 17 19 20 22 23 25 26 27 28 29 31 32 33 33 33 34 35 37 39 39 38 38 38 38 37 36 37 38 36 35 35 34 33 33 34 32 31 31 32 31 29 28
12 13 14 12 7 4 4 5 7 9 11 13 15 16 17 18 19 19 19 18 19 21 22 20 20 23 25 24 22 24 25 21 17 16 16 16 17 20 22 22 22 21 19 19 22 24 25 26 26 26 27 27 27 27 27 27 25 24 25 28 32 34 35 35 37 39 39 37 36 36 36 34 33 33 31 31 32 32 29 29 30 30 28 27 27
11 13 13 9 5 6 7 6 7 8 9 11 14 16 17 17 17 17 18 18 18 19 19 19 21 24 25 24 21 22 24 21 17 16 17 16 17 19 20 22 23 23 23 24 26 28 28 28 28 28 28 27 27 26 25 24 21 20 22 24 27 29 32 33 35 38 38 37 36 36 35 33 33 32 30 30 31 29 27 27 29 29 27 25 26
11 11 10 9 9 8 7 7 8 8 9 10 13 16 18 19 17 16 17 18 19 19 19 19 20 20 22 23 21 20 21 20 17 17 19 19 19 19 20 22 23 23 24 25 27 27 26 25 26 28 28 28 28 28 27 25 23 21 23 24 25 26 29 32 33 34 35 35 35 35 34 33 32 31 30 29 28 25 24 24 25 27 27 26 25
12 10 9 9 9 9 8 8 9 11 11 11 12 15 18 20 19 19 20 21 22 22 21 19 17 18 19 19 19 20 20 19 17 18 21 21 20 20 22 23 24 25 25 25 26 27 26 24 25 26 26 27 29 29 28 27 27 25 25 26 26 26 28 31 33 32 31 31 31 31 31 31 31 30 29 28 25 24 23 23 23 25 26 25 25
13 11 10 9 9 9 9 10 11 11 11 11 12 15 17 19 21 23 27 28 26 24 22 19 18 18 18 15 16 19 21 20 19 20 22 23 22 23 24 25 26 27 27 25 24 26 26 26 26 26 26 27 29 30 29 28 28 28 27 27 28 29 31 32 33 33 31 30 29 27 26 26 27 27 28 26 24 23 23 23 23 23 24 24 23
14 12 10 9 9 9 9 10 10 10 10 11 13 15 17 20 22 24 27 28 27 26 24 22 21 20 18 17 19 21 20 19 18 20 21 22 24 26 29 29 27 25 24 23 22 23 24 25 26 27 27 28 30 30 30 30 30 29 30 31 32 33 33 33 33 34 35 34 33 31 30 28 26 25 23 21 21 22 24 24 24 24 25 26 25
16 14 12 11 11 11 11 11 11 11 12 12 13 16 19 21 22 23 23 24 25 26 26 25 23 22 21 22 23 21 17 15 16 17 19 23 26 28 29 29 27 25 23 22 22 23 24 26 27 27 28 28 29 29 29 29 30 30 31 32 33 34 34 34 34 34 34 34 34 33 31 30 29 28 26 24 23 21 21 22 23 25 28 28 26
16 15 14 15 15 14 13 12 12 13 13 13 14 16 18 19 21 21 22 22 23 24 25 26 26 25 23 22 18 14 12 13 15 18 21 25 27 28 27 26 26 25 24 22 21 21 23 24 25 25 26 26 28 28 28 29 30 31 32 33 33 33 34 34 34 34 34 34 33 31 29 27 28 29 29 28 26 25 26 27 25 24 24 25 24
15 15 15 16 17 16 14 14 14 14 14 13 14 15 17 19 20 20 20 21 23 24 25 25 25 24 23 19 15 13 15 17 20 23 25 26 27 27 26 23 23 23 22 21 21 22 22 22 22 22 22 22 23 23 23 24 25 27 29 31 33 35 35 35 35 33 32 30 29 27 26 25 26 26 26 27 27 28 28 25 20 20 23 24 22
14 13 14 16 17 16 16 16 16 15 15 14 15 16 18 19 19 18 19 20 21 22 23 23 23 23 22 21 20 22 24 25 25 26 26 27 28 27 24 22 21 21 20 22 23 24 24 24 24 24 24 24 25 24 23 22 22 22 23 22 22 24 29 33 33 30 26 24 23 23 23 24 25 25 26 27 27 24 19 15 17 23 25 22 19
14 14 14 15 16 17 18 18 16 15 16 16 16 17 18 18 17 17 17 18 19 21 22 23 22 21 21 23 25 26 25 25 25 24 26 27 26 24 21 20 21 21 22 24 25 25 25 25 25 25 26 26 26 25 24 23 23 24 26 26 23 20 18 19 21 20 19 20 21 22 23 23 22 21 21 22 21 19 17 18 21 22 19 17 18
14 13 13 14 15 16 16 16 15 15 15 16 16 16 17 17 16 15 16 17 19 20 21 22 22 21 21 24 26 25 23 22 21 21 22 23 22 21 19 20 21 22 23 24 25 26 26 25 25 26 27 26 25 25 24 24 25 25 26 26 26 24 20 16 14 13 12 13 15 19 21 21 19 19 19 20 20 20 20 20 20 18 18 20 22
14 13 13 13 14 15 14 13 13 14 15 15 16 17 18 17 17 16 16 17 18 19 20 21 22 22 22 23 23 22 21 21 20 18 18 18 18 19 20 21 22 22 22 23 25 26 27 26 25 25 25 25 24 24 24 24 25 25 24 24 24 25 23 20 17 15 13 10 8 9 10 11 11 12 14 16 18 19 19 20 21 21 21 23 24
14 14 14 14 14 14 13 13 13 14 15 15 16 17 17 17 17 17 17 18 19 20 21 21 22 22 22 21 21 20 19 19 18 17 17 16 16 18 20 21 22 21 21 22 24 25 25 25 24 23 22 22 22 22 23 23 24 23 23 22 23 24 24 22 19 17 16 15 14 12 12 12 11 10 10 11 12 14 15 16 19 22 23 25 27
14 14 14 14 14 14 14 14 15 15 15 15 16 16 16 16 17 17 18 19 19 19 19 19 20 20 19 19 19 20 20 19 17 17 17 16 16 17 19 21 22 22 22 23 23 23 23 23 22 21 21 21 21 20 20 20 21 22 22 22 22 22 22 20 19 18 19 20 21 22 23 23 20 17 16 14 13 13 13 13 16 20 24 26 28
14 13 13 14 14 15 15 15 15 15 15 15 15 16 16 17 17 18 18 18 18 18 18 18 18 18 18 19 20 20 20 19 17 17 17 17 17 18 20 21 21 22 23 24 24 23 22 22 22 21 21 20 20 20 19 19 19 19 19 20 20 20 19 18 18 20 22 24 25 26 26 26 24 22 21 19 17 17 18 17 18 20 22 23 24
14 14 14 15 16 15 15 14 14 14 14 15 15 16 16 17 17 18 17 17 18 17 17 18 18 18 19 20 20 20 20 18 17 16 16 17 19 20 20 20 20 21 23 25 25 24 22 21 21 21 21 21 21 21 20 20 19 17 17 17 18 18 18 18 20 22 25 27 28 28 27 27 26 25 24 22 20 20 21 22 22 23 24 24 24
16 16 16 16 15 14 14 14 14 14 14 14 14 15 16 16 16 17 17 17 17 17 17 17 18 19 20 20 20 19 19 18 17 16 16 18 19 20 20 20 21 21 23 24 24 22 21 20 20 21 22 22 22 21 21 20 18 17 16 16 16 17 19 21 22 23 24 25 26 26 26 27 27 26 25 24 22 21 22 23 24 25 26 27 28
17 16 15 14 14 14 14 14 14 13 13 13 14 15 16 17 17 17 17 17 17 17 17 17 18 19 20 21 20 19 18 17 17 17 17 17 18 19 20 21 22 22 22 22 21 20 20 20 21 22 21 21 21 21 21 20 18 16 16 16 17 18 20 21 21 21 21 22 22 23 24 26 28 28 28 27 25 23 22 22 23 23 24 26 27
14 14 13 13 14 14 14 13 13 12 12 13 14 14 16 17 18 18 17 17 16 17 17 17 18 18 19 20 19 18 17 17 16 17 16 16 17 18 20 21 22 22 22 21 20 20 21 21 21 20 19 18 20 22 23 20 18 17 17 17 18 19 19 20 20 20 19 19 19 20 21 23 26 28 28 26 25 23 22 21 21 22 22 22 24
12 13 13 13 13 14 13 13 13 13 13 14 15 15 15 16 17 18 17 17 16 16 16 17 17 17 18 18 18 17 16 15 16 16 17 17 18 19 21 22 23 22 21 21 21 21 20 19 19 18 18 18 20 22 22 20 18 17 18 19 19 20 20 19 19 18 17 17 17 17 18 20 23 24 23 22 22 21 21 20 20 19 19 20 21
11 12 12 13 13 13 14 14 15 15 15 15 16 16 16 16 17 17 17 17 16 16 16 16 17 17 17 17 16 16 15 15 15 16 18 19 20 20 21 21 21 20 19 19 19 18 16 17 18 18 17 17 19 21 21 19 18 19 19 19 20 20 19 18 16 14 13 14 14 14 14 16 18 20 20 20 19 19 19 18 18 18 18 19 19
11 11 13 13 13 13 14 14 14 15 16 16 17 17 17 17 17 17 17 17 17 17 17 16 15 15 15 16 15 15 14 14 15 16 17 18 19 19 18 18 18 18 18 18 17 16 15 16 16 17 17 18 19 20 20 19 19 20 20 19 18 18 17 16 14 12 11 11 11 11 11 12 14 16 17 17 16 16 15 15 15 15 15 15 16
Wind_Direction
194 198 202 202 203 206 206 206 205 204 205 208 211 210 212 213 212 212 213 209 209 214 213 206 205 207 208 211 216 221 216 214 218 214 214 217 213 218 222 215 218 216 214 223 221 224 238 238 239 243 240 242 244 253 275 267 252 261 252 245 264 271 269 271 270 282 294 304 309 306 315 326 322 321 321 311 302 306 306 307 312 314 314 315 312
194 195 198 200 202 206 208 207 208 208 206 209 213 212 210 213 214 213 215 214 209 212 214 209 207 210 212 214 216 220 222 222 223 218 216 219 215 216 224 225 224 219 218 223 221 226 243 243 236 237 240 246 247 248 255 257 255 264 258 246 249 254 255 259 260 267 283 296 306 306 304 307 308 311 312 304 301 305 305 304 304 305 311 315 317
198 198 197 196 198 203 207 206 208 209 208 210 214 215 213 212 214 214 217 217 211 211 214 211 212 215 215 216 218 221 225 226 224 220 219 224 222 217 223 231 228 221 221 225 224 226 237 245 238 230 231 241 248 250 250 249 253 263 266 257 250 247 248 252 253 253 265 282 294 296 295 293 291 293 295 296 300 302 301 303 304 305 307 308 308
200 197 195 194 195 198 201 203 206 208 209 211 212 216 218 215 216 217 219 221 215 213 215 215 215 218 218 220 222 225 228 227 224 222 223 229 231 223 222 232 234 229 226 228 228 229 233 238 238 232 233 239 246 252 251 246 249 258 268 271 266 261 254 251 256 256 254 262 279 287 291 290 288 291 294 298 303 305 300 299 300 300 299 298 297
204 193 191 192 197 198 195 196 201 202 205 210 211 214 219 220 220 219 218 223 222 217 216 217 216 216 218 222 225 227 231 229 224 223 225 230 234 231 228 233 237 235 233 232 231 231 232 235 237 236 237 240 244 251 255 250 249 259 266 268 273 278 265 254 256 255 246 252 271 282 288 293 294 296 299 301 304 304 297 291 291 291 292 293 290
226 179 176 182 191 199 202 203 198 193 196 204 210 216 222 225 227 224 219 220 224 224 220 217 217 218 219 221 225 228 231 231 227 224 225 227 231 235 235 235 238 238 237 236 233 233 234 235 237 237 236 237 240 247 254 252 248 254 262 265 268 275 272 260 255 251 247 255 269 279 286 291 294 296 300 302 301 299 294 290 287 286 289 293 287
85 69 80 138 164 192 214 225 218 200 194 197 207 220 237 243 246 237 222 216 218 224 225 220 218 220 221 221 223 227 228 230 231 228 226 226 230 234 236 235 237 239 238 237 237 237 238 238 240 241 240 238 238 241 247 251 250 251 255 261 265 269 273 273 267 261 262 265 270 275 281 286 288 291 297 304 301 294 288 284 283 286 289 291 286
77 70 60 66 79 123 214 253 251 222 212 207 210 218 227 254 312 294 230 214 213 218 223 223 220 219 222 223 224 225 227 228 231 233 231 230 231 233 235 235 236 239 237 237 238 239 240 240 241 242 243 242 242 240 240 244 247 250 252 255 259 261 266 270 271 270 268 268 267 269 274 278 280 284 290 293 290 286 285 282 283 288 291 290 285
73 70 61 54 50 48 52 48 357 219 214 216 217 217 220 225 255 314 265 216 212 218 223 226 224 219 219 223 224 224 225 227 230 233 234 233 232 234 236 235 234 236 237 237 238 239 240 241 242 244 244 244 243 242 242 242 241 243 247 249 251 253 257 261 265 266 266 266 267 270 272 272 274 278 282 283 282 285 290 288 286 288 289 286 280
70 74 69 60 55 52 52 57 64 94 197 223 227 226 226 222 221 243 266 230 221 225 231 236 237 225 218 218 222 222 222 226 231 233 235 235 233 232 235 237 236 234 236 238 240 241 241 241 243 246 249 249 246 244 245 245 244 243 243 243 243 245 247 250 253 256 258 260 264 268 270 271 273 274 275 279 284 287 290 289 288 289 287 281 275
66 73 73 66 61 60 58 58 61 64 63 42 335 241 240 234 225 224 232 236 231 230 236 247 256 243 223 217 218 219 221 225 229 232 235 236 235 233 233 235 236 236 235 236 239 241 242 242 243 245 248 249 249 248 248 247 247 247 245 242 241 240 241 243 246 248 250 251 256 259 262 266 271 273 273 277 281 283 287 288 287 289 287 277 272
64 67 72 69 62 60 61 63 65 65 63 58 49 35 311 264 244 233 227 228 232 230 232 241 250 256 241 224 218 218 220 224 227 230 233 235 235 235 234 233 234 236 236 235 236 238 240 242 244 245 247 249 250 250 250 249 249 249 248 246 243 241 241 242 243 245 245 246 249 252 254 259 264 268 270 272 275 278 285 287 285 286 286 277 272
64 63 66 68 65 59 58 64 69 69 69 66 60 47 19 336 293 263 245 239 237 232 228 233 237 243 250 237 223 221 222 224 227 228 230 234 235 235 235 234 233 234 236 237 236 236 236 238 240 244 246 248 251 254 256 255 253 251 249 249 247 244 244 244 246 247 247 248 248 249 253 255 258 262 265 266 269 272 276 278 279 282 284 282 281
61 59 58 62 64 59 55 59 62 64 67 65 60 54 37 8 346 330 298 265 249 237 230 231 231 233 241 247 236 226 224 225 228 229 229 233 235 235 235 234 234 234 236 238 239 238 238 237 238 241 243 244 247 253 259 262 260 256 252 249 248 248 246 245 246 248 248 249 249 251 255 256 256 260 263 263 262 263 266 270 275 279 283 284 286
55 55 55 53 54 55 56 59 58 52 48 42 37 44 42 25 6 351 333 292 269 256 241 233 231 233 241 248 248 242 231 225 226 228 231 233 235 236 234 232 233 235 235 236 239 240 242 242 241 241 242 243 244 247 253 257 259 260 257 253 252 251 250 249 249 249 250 251 252 254 257 259 260 262 264 263 260 260 262 266 272 279 283 285 285
47 48 48 42 41 49 53 57 57 50 42 43 43 41 38 33 22 1 342 321 294 277 257 241 235 235 240 245 248 249 248 242 234 229 229 232 236 238 236 233 232 234 236 237 237 239 242 244 245 245 244 245 246 247 248 250 252 254 255 255 256 254 254 255 255 254 255 255 257 259 261 264 266 267 268 267 265 265 264 265 270 275 279 282 282
38 37 37 33 34 41 42 42 46 44 37 38 46 46 38 33 29 13 352 335 319 303 284 265 254 249 248 250 252 252 250 251 254 251 243 238 239 242 242 239 236 235 236 238 238 239 240 242 245 247 248 248 249 249 249 248 248 249 249 251 253 254 255 257 257 257 257 257 260 263 266 268 269 269 270 269 269 268 264 262 267 269 270 273 274
35 31 30 26 28 32 32 28 27 32 33 30 29 29 24 17 11 4 352 337 325 316 303 288 277 271 268 265 264 263 257 252 254 258 259 255 251 249 248 248 244 240 239 239 240 240 241 242 244 246 248 250 250 251 250 248 247 248 248 248 247 248 251 253 253 254 256 257 259 262 265 267 268 267 267 267 268 267 261 258 262 264 261 260 263
33 28 27 25 24 24 25 23 18 23 36 31 24 18 14 7 355 342 336 330 321 317 313 306 296 287 280 274 271 271 268 262 258 258 259 261 262 261 258 255 252 249 245 243 243 243 243 243 244 246 249 251 253 253 252 250 249 249 249 247 245 247 250 249 246 248 251 253 256 259 261 265 267 268 269 269 268 265 261 260 261 257 254 255 258
33 30 26 21 20 21 19 16 14 16 19 16 20 22 17 11 1 348 339 328 319 316 318 317 310 300 293 286 280 278 276 272 268 265 263 263 265 269 268 263 258 256 252 248 247 247 247 247 247 248 250 252 254 256 256 255 255 254 251 247 246 250 253 251 247 248 250 251 255 258 260 264 267 268 271 271 269 266 263 262 260 255 251 251 255
34 36 30 18 13 16 14 9 7 7 4 357 3 15 10 1 355 352 345 330 323 324 325 324 319 311 305 299 292 287 283 280 277 276 276 274 272 273 273 270 267 264 260 254 251 251 251 251 252 252 252 253 254 256 257 258 258 259 256 252 251 255 257 256 254 254 254 255 257 257 258 260 262 265 268 270 271 269 267 264 262 257 252 249 250
22 37 33 17 11 8 5 1 357 355 355 354 354 352 346 336 323 323 329 328 329 331 332 331 328 324 322 317 308 299 290 285 283 283 284 286 286 283 280 277 275 271 266 260 256 255 255 256 257 257 257 258 259 259 261 262 262 262 261 259 259 260 260 260 259 259 258 258 258 257 257 257 258 261 264 267 270 270 268 265 263 261 257 254 252
354 17 28 20 15 5 356 350 349 349 347 345 345 345 345 344 339 331 327 329 334 339 345 346 343 340 338 334 328 322 313 300 287 275 268 265 267 267 268 270 271 271 268 264 261 259 258 259 262 263 262 261 262 263 264 265 265 265 265 264 264 263 262 261 261 260 260 260 259 258 258 256 255 258 260 263 267 269 268 267 265 263 261 259 257
350 349 5 24 22 3 350 345 350 354 347 338 344 352 356 356 354 347 340 340 348 350 350 351 349 347 345 340 335 332 332 328 314 291 275 264 260 261 264 266 267 267 265 264 264 264 262 260 259 260 262 262 261 260 261 262 263 265 266 266 265 265 263 262 262 262 261 260 259 259 259 258 256 256 257 259 263 266 269 269 266 263 261 260 260
353 349 351 19 26 5 349 344 350 355 350 348 352 357 356 353 354 358 3 7 2 351 343 341 341 339 339 338 335 332 332 336 340 332 316 296 281 278 282 281 277 273 269 266 264 264 264 262 259 258 259 262 263 261 260 261 263 265 265 265 264 264 264 264 264 263 261 260 259 259 260 260 259 259 260 261 261 262 263 264 265 265 264 263 262
347 345 343 346 14 14 353 341 348 353 355 360 1 357 354 352 354 357 360 358 353 345 338 335 332 329 328 327 329 333 334 336 338 334 330 322 305 291 290 287 281 278 275 270 266 264 263 264 264 263 262 262 262 263 263 264 265 268 269 269 268 266 266 266 266 263 259 257 257 258 259 261 263 263 263 262 260 260 260 260 263 265 266 268 270
337 336 334 331 356 15 347 336 353 3 0 360 357 351 349 351 350 347 344 342 340 336 332 329 325 323 322 321 322 325 331 339 343 328 311 314 315 310 306 301 292 283 277 273 274 273 271 271 270 269 268 266 264 263 265 267 269 271 272 272 271 270 268 267 267 265 262 258 254 255 257 260 261 262 261 259 258 258 258 258 259 261 264 267 271
331 328 326 319 323 345 337 343 7 11 2 354 347 342 342 341 340 339 337 334 330 325 324 324 323 321 318 316 318 319 322 332 346 344 321 312 313 311 309 307 302 295 287 286 287 287 286 285 280 276 273 270 268 267 267 269 272 275 277 275 272 269 268 267 266 265 263 259 254 252 253 255 256 258 259 259 259 259 259 258 257 258 261 263 265
335 333 327 317 310 345 16 26 15 2 354 345 335 331 331 331 329 328 329 330 328 324 319 315 317 321 318 313 311 311 312 319 334 342 338 328 319 314 310 306 303 297 290 287 287 287 288 290 290 286 280 275 272 271 270 271 274 279 283 282 275 268 264 262 261 261 260 258 253 251 250 251 253 255 256 258 261 263 264 262 260 260 260 259 259
345 343 344 349 21 50 48 35 10 356 350 342 332 325 324 327 327 325 326 328 327 325 320 313 314 317 315 312 310 305 304 308 319 330 332 329 323 320 317 312 307 300 292 286 283 283 283 284 285 285 284 280 275 270 267 266 270 279 287 287 279 271 264 260 259 259 258 256 253 251 251 250 252 253 254 256 260 263 265 266 265 264 262 259 260
6 1 7 22 36 38 30 16 1 346 338 336 331 326 326 330 328 323 324 324 322 320 319 314 311 311 309 310 313 311 305 304 310 319 324 325 324 322 321 319 316 311 303 295 289 286 284 281 280 281 283 281 277 272 269 267 269 278 286 286 280 275 269 263 261 259 257 255 254 252 250 249 250 252 254 257 262 265 266 267 267 265 263 262 264
20 15 11 11 16 19 14 4 353 344 341 342 336 329 329 331 327 321 318 318 317 319 321 318 312 310 309 308 313 316 313 308 307 311 315 318 319 320 319 320 321 318 313 305 298 293 290 285 281 281 282 281 280 278 277 275 274 275 276 273 271 272 270 267 264 261 256 254 254 252 251 251 252 254 256 258 261 263 265 265 265 263 263 264 265
14 11 5 4 8 8 2 358 357 356 356 352 340 333 332 332 329 323 318 316 316 321 326 328 322 316 309 303 309 317 317 313 308 306 308 314 320 321 319 318 319 318 315 310 304 299 293 286 282 281 280 280 281 282 281 281 281 279 275 269 267 269 269 268 265 262 259 257 256 255 254 253 253 255 257 258 258 260 261 260 258 259 261 262 263
5 3 2 2 1 357 354 357 359 356 350 341 333 329 326 325 325 322 318 317 319 322 326 330 330 326 317 311 312 313 313 313 309 304 308 317 322 322 319 317 318 319 318 315 312 307 299 290 283 282 281 279 279 280 278 277 276 274 272 270 269 269 269 267 263 261 262 262 260 257 256 254 253 253 254 253 254 254 253 252 251 249 248 248 250
360 358 358 0 360 357 355 353 347 340 335 332 327 324 322 320 318 316 313 312 314 316 319 322 324 323 319 316 312 306 302 307 309 308 313 320 323 323 323 324 325 326 325 321 317 312 306 296 287 282 281 278 277 277 277 276 273 268 265 264 264 265 265 263 261 260 261 261 260 259 257 255 253 252 251 250 249 249 250 250 246 241 242 246 250
356 357 1 5 4 0 356 350 342 334 329 325 321 318 316 313 307 303 304 307 309 310 312 315 319 322 323 321 315 305 302 310 313 314 317 320 323 328 332 331 329 327 325 323 321 320 316 308 297 291 287 283 279 277 274 273 272 268 264 261 261 261 262 261 260 260 259 258 259 259 258 254 251 248 246 244 242 243 245 246 243 243 248 255 259
350 354 360 2 0 356 352 347 342 338 333 327 323 318 313 308 302 298 300 304 306 307 308 312 319 327 331 331 327 321 319 319 317 316 318 320 325 333 337 334 327 325 326 328 331 331 330 326 321 319 316 312 308 302 296 290 285 280 274 267 262 260 260 261 260 259 257 255 255 256 255 252 246 240 237 236 237 239 243 247 247 247 248 249 252
351 352 355 355 354 352 348 341 336 333 331 326 323 318 311 305 300 299 299 302 304 307 310 314 319 324 329 332 332 329 328 327 325 323 322 325 330 336 338 333 328 329 332 333 333 332 329 326 326 327 326 327 330 331 329 327 323 319 315 308 291 275 267 263 260 257 255 254 256 259 259 256 251 247 244 243 243 245 251 254 247 241 241 245 251
354 352 350 348 347 344 341 335 329 325 323 320 316 313 310 306 302 301 303 307 310 311 312 314 316 318 322 327 329 330 332 335 335 333 330 331 334 338 338 333 331 333 333 331 331 331 329 325 324 323 322 323 327 328 328 330 331 331 333 334 331 322 305 286 273 268 265 263 263 266 267 263 258 253 249 247 248 251 255 255 247 244 253 267 268
353 349 344 341 338 334 331 326 322 320 319 318 317 315 313 311 309 308 308 310 311 311 311 312 312 314 318 322 323 327 334 337 337 335 333 333 336 338 337 335 334 334 332 330 329 330 329 327 325 324 322 323 325 325 324 325 326 328 330 330 328 328 328 326 319 311 301 287 275 272 269 265 260 256 253 253 256 259 263 267 268 270 276 275 266
353 346 338 332 331 329 323 317 314 317 320 319 315 312 311 311 312 313 311 310 308 307 306 307 306 308 312 314 315 321 331 335 334 332 332 332 334 334 333 332 332 331 329 329 329 329 328 327 325 325 324 324 324 324 323 323 323 325 326 325 323 321 322 326 329 327 324 319 306 286 275 272 271 270 267 266 267 269 271 275 277 278 274 268 259
353 346 337 331 329 326 322 318 316 317 317 313 309 308 309 312 314 313 310 306 304 303 302 303 305 306 308 308 308 314 324 328 328 329 329 327 328 329 328 327 327 327 327 327 328 328 327 325 323 323 324 324 324 324 324 324 324 323 322 319 318 317 319 322 325 319 310 305 301 297 297 302 304 297 289 286 286 285 282 279 277 271 264 258 251
353 343 333 329 326 322 319 317 315 312 309 307 306 308 311 312 313 311 308 304 301 300 301 304 307 309 309 309 309 313 317 319 322 326 328 327 327 327 324 322 320 320 322 323 324 325 324 323 321 320 321 322 322 321 321 321 321 320 319 317 315 314 316 321 321 315 306 302 298 296 296 299 300 297 293 292 291 289 287 285 278 267 256 250 245
352 342 329 321 317 313 309 306 304 304 305 306 308 311 312 312 310 309 307 305 303 302 303 305 308 311 313 313 313 312 310 309 311 315 317 319 320 319 317 316 314 315 317 319 321 322 321 319 317 318 319 321 321 320 319 320 319 318 317 316 314 313 313 313 310 306 306 306 304 301 299 297 296 295 292 288 283 280 279 279 276 270 262 256 252
343 335 324 314 308 304 302 301 302 305 308 310 311 311 310 308 306 305 305 305 306 306 307 308 309 310 311 312 312 310 306 305 307 308 306 306 308 310 312 313 312 312 313 316 319 321 320 318 318 318 319 321 322 321 320 319 318 315 312 312 312 310 306 300 297 297 301 305 304 301 298 294 291 289 287 284 279 274 272 271 270 267 264 262 259
328 320 313 308 303 300 302 306 308 309 310 310 312 312 310 307 306 305 305 305 305 305 306 308 310 312 311 311 311 309 305 305 308 310 306 304 305 308 309 310 309 309 311 315 318 321 321 319 319 320 320 322 323 323 322 320 317 312 306 302 301 300 298 298 299 300 301 303 303 299 294 289 286 284 282 280 276 271 267 265 264 260 258 259 259
320 313 309 305 301 300 304 307 309 310 310 312 314 314 312 310 307 305 303 303 304 304 306 307 308 308 308 306 306 305 305 305 306 308 308 308 307 307 306 307 308 311 314 316 319 320 319 319 320 321 322 324 326 326 325 321 318 316 314 308 304 303 303 305 307 307 306 304 301 296 289 284 280 278 276 274 272 270 267 264 262 260 259 259 260
319 315 311 307 303 304 308 310 311 311 312 312 313 312 310 309 307 305 305 305 303 302 303 305 305 305 304 303 303 304 306 305 303 305 307 307 306 305 306 306 309 313 316 317 317 317 318 320 323 324 325 326 329 331 332 328 319 316 316 313 310 309 308 308 308 309 309 306 301 295 290 284 279 276 273 271 270 269 268 267 266 266 265 264 263
321 317 314 311 309 312 317 318 317 316 313 311 309 308 308 307 306 306 307 306 303 301 303 304 304 304 306 306 307 308 307 305 304 305 306 306 306 307 307 308 311 316 319 319 319 321 324 327 329 330 330 326 325 330 337 338 331 324 321 318 315 313 311 310 309 308 306 303 299 295 292 288 283 278 274 271 270 269 269 271 272 273 272 271 268
319 315 316 316 317 320 324 324 323 322 320 316 313 311 309 306 305 305 305 305 303 304 305 304 304 304 306 309 310 309 306 303 303 303 303 305 307 309 311 314 317 321 322 321 321 325 331 334 332 332 332 326 323 328 337 342 341 338 334 327 322 319 317 315 314 312 306 303 301 297 292 288 286 283 279 275 273 272 271 273 275 276 275 276 274
324 321 322 324 325 326 326 325 325 325 323 320 318 316 312 309 307 305 303 302 303 304 303 301 302 305 308 311 313 310 305 301 300 300 301 304 307 311 315 319 320 322 325 328 331 335 339 337 333 333 332 328 325 330 338 342 344 344 341 334 328 326 325 323 321 318 311 305 303 300 297 293 291 288 285 281 279 277 276 276 278 279 279 279 278
Height
822 825 827 829 831 833 835 837 839 841 843 845 846 848 850 851 852 854 854 856 857 858 860 860 862 863 864 865 865 866 867 867 868 868 869 870 870 870 870 870 871 871 871 871 871 871 871 871 872 872 872 872 872 873 873 873 873 873 873 874 873 874 874 874 874 873 871 872 872 872 871 871 871 871 870 870 869 869 869 868 867 866 865 863 862
819 823 824 827 829 831 833 835 837 839 841 843 844 846 848 849 850 852 853 854 855 856 858 859 860 861 862 864 864 865 865 866 867 867 868 868 869 869 869 869 870 870 870 870 870 870 870 870 870 870 871 871 871 872 872 872 872 872 872 872 872 872 873 873 873 872 871 870 870 870 870 870 870 869 869 869 869 868 868 867 866 865 864 862 861
817 821 823 825 827 829 831 833 835 837 839 841 842 844 846 847 849 850 851 852 853 854 856 857 858 859 860 862 863 863 864 864 865 866 866 867 867 868 868 868 868 868 868 869 869 869 869 869 869 869 869 870 870 870 870 870 871 871 871 871 871 871 871 871 871 871 870 869 869 869 869 869 869 868 868 868 867 867 866 866 865 864 863 862 860
817 818 820 823 825 828 830 831 833 835 837 838 840 842 844 845 847 848 849 850 851 852 854 855 856 858 858 860 861 861 862 862 863 864 864 866 866 867 867 867 867 867 867 867 867 867 867 867 868 868 868 868 868 869 869 869 869 869 870 870 870 870 869 870 870 869 869 869 868 868 868 868 867 867 867 866 866 866 865 864 864 863 862 861 860
820 817 818 820 823 826 828 830 832 833 835 837 838 840 842 843 844 846 847 849 849 850 851 852 854 855 856 857 859 860 860 861 862 862 863 864 865 865 866 866 866 866 866 866 866 866 866 866 866 866 867 867 867 867 867 867 868 867 868 868 868 868 868 868 868 868 868 868 867 867 867 867 866 866 866 865 865 864 864 863 862 861 860 860 859
822 819 819 820 822 825 826 828 830 832 834 836 837 839 840 841 843 843 844 846 847 848 849 850 851 852 853 854 856 857 858 859 860 861 862 862 863 864 864 864 865 864 864 864 864 864 864 864 864 865 865 865 865 865 865 865 865 865 865 865 866 866 866 866 866 866 866 866 865 865 865 865 864 864 864 864 863 862 862 861 860 860 859 858 857
820 822 823 822 822 824 826 827 829 831 833 834 835 836 837 838 840 841 841 842 844 846 846 847 848 849 850 851 852 854 856 857 858 859 860 860 861 862 862 862 863 863 863 863 863 863 863 863 863 863 863 863 863 863 863 863 863 863 863 863 864 864 864 864 864 864 864 864 864 863 862 863 863 862 862 862 862 861 860 859 858 857 856 856 856
818 821 825 825 824 825 826 827 828 829 831 832 833 834 834 835 836 838 839 839 841 842 843 845 845 846 847 848 849 851 852 854 855 856 857 858 859 859 860 860 860 861 861 861 861 862 861 861 861 861 861 860 860 861 861 861 861 861 861 861 862 862 861 861 862 862 862 862 861 861 861 861 860 860 860 860 860 859 858 857 856 854 854 854 853
818 819 822 825 827 827 827 827 828 829 829 829 830 831 832 833 833 835 837 837 838 840 841 842 843 843 844 845 846 847 849 850 851 852 854 855 856 857 857 858 858 858 859 859 859 860 859 859 859 859 858 858 858 858 858 858 858 858 859 859 859 859 859 859 859 860 860 859 859 859 859 858 858 858 858 858 858 857 856 855 854 852 851 851 851
820 818 820 825 829 829 828 828 828 829 829 828 829 829 830 830 830 832 834 836 837 838 840 841 841 842 841 842 843 844 845 846 847 848 849 851 852 853 854 855 855 856 856 856 857 857 857 857 857 857 857 856 856 856 856 856 856 856 856 856 856 857 857 857 857 857 857 857 857 857 857 856 856 856 856 856 856 855 854 853 852 850 849 849 848
823 819 819 825 831 831 829 828 828 827 827 827 827 828 829 829 828 828 830 833 836 837 839 840 841 841 840 839 839 840 840 841 842 844 845 847 848 849 850 851 852 852 853 853 853 854 854 854 854 854 854 854 854 854 854 854 853 853 853 853 853 854 853 854 854 854 854 854 854 854 854 853 853 853 853 853 853 853 852 851 850 849 848 847 846
825 821 820 824 830 831 830 828 827 826 826 826 826 826 826 827 827 827 827 829 832 835 837 838 839 839 839 837 836 836 836 837 838 840 841 843 845 846 847 848 848 848 849 849 849 850 850 851 851 852 852 852 852 851 851 851 850 850 851 851 851 851 851 851 851 851 851 851 851 851 851 850 850 850 850 850 850 850 850 849 848 847 847 846 845
825 823 822 824 829 832 831 828 827 826 825 825 825 824 825 826 827 828 827 827 829 830 832 834 835 836 836 836 835 834 833 834 835 836 838 839 841 842 843 844 845 845 845 845 846 846 846 847 847 847 848 848 848 848 848 848 848 848 848 848 849 849 849 849 849 849 849 848 848 848 847 847 847 846 847 847 848 848 847 847 846 845 845 844 843
825 824 824 826 830 833 832 828 826 826 825 825 824 824 824 825 826 827 827 827 827 827 828 830 832 833 834 834 834 833 833 833 833 834 835 836 837 838 839 840 841 842 843 843 843 843 843 843 843 843 843 844 844 845 845 845 845 845 846 846 846 846 846 846 846 846 846 846 845 844 844 844 843 842 843 844 844 844 844 844 844 843 843 842 841
826 826 828 830 832 833 832 829 827 826 825 825 824 824 824 824 824 825 826 826 827 827 827 827 829 831 831 831 831 830 830 831 831 832 833 833 835 835 836 837 838 838 839 840 840 840 840 840 840 840 840 840 840 840 840 841 841 842 842 842 842 842 842 842 843 843 842 842 841 840 840 840 840 839 840 840 841 841 841 841 841 841 840 839 838
829 830 831 832 833 833 831 830 828 827 826 825 825 825 825 824 825 826 827 827 827 827 826 826 826 827 828 828 827 827 826 827 828 829 830 831 832 833 833 834 835 835 835 836 837 837 838 838 837 837 837 836 837 837 837 837 837 837 837 837 837 838 837 838 838 838 838 838 837 837 837 837 837 836 836 836 837 837 838 838 839 839 838 836 835
831 831 832 832 833 832 831 829 828 826 825 825 826 826 826 826 826 826 827 827 827 826 825 825 824 825 825 824 824 823 823 823 824 825 826 828 829 830 830 831 832 832 832 833 833 833 834 834 834 834 833 833 833 834 835 835 834 833 833 832 833 833 832 833 834 834 834 834 834 834 833 833 833 833 833 833 833 834 835 835 834 835 835 834 832
833 832 832 832 832 832 831 830 829 827 826 825 826 826 827 827 827 826 827 827 827 826 825 824 824 823 822 822 822 821 820 820 821 822 823 824 825 826 827 828 828 829 829 829 830 830 830 831 831 831 830 830 831 831 832 832 831 830 829 829 828 827 826 827 828 829 829 830 830 830 830 829 829 829 829 829 830 831 831 830 830 831 831 831 829
834 834 833 832 832 832 832 831 830 830 829 828 827 827 826 826 825 825 826 827 828 827 825 823 822 821 821 820 819 819 818 818 819 819 820 821 822 823 825 826 825 825 826 826 827 827 827 828 828 828 827 827 828 828 829 829 828 827 826 826 825 822 820 822 823 823 824 824 824 825 825 825 825 825 825 826 826 827 826 825 826 827 827 826 826
835 835 834 833 833 833 832 832 831 831 831 831 830 829 828 827 826 826 827 829 829 828 825 823 821 820 819 818 817 817 817 816 817 818 819 820 822 822 823 823 823 823 823 824 824 824 824 824 824 824 824 824 824 825 825 825 825 824 823 823 820 817 817 819 820 820 819 819 819 820 820 821 821 821 821 822 822 823 822 821 822 822 822 822 822
836 836 835 834 834 833 832 832 832 832 832 832 832 832 832 831 831 831 831 832 830 827 825 823 821 819 818 817 817 817 817 816 817 818 819 821 822 822 823 822 822 822 822 822 822 821 821 821 820 820 820 820 820 820 820 821 821 821 820 818 816 815 816 818 818 818 818 817 816 816 815 816 817 817 817 818 818 818 819 818 818 818 818 817 817
837 836 836 835 834 833 832 832 832 832 832 832 832 832 832 832 832 832 831 830 828 825 823 822 820 819 817 817 817 817 817 817 818 819 820 822 822 822 821 821 821 822 821 820 819 819 818 818 817 817 816 816 816 816 816 817 817 816 815 814 814 814 815 815 815 816 816 815 814 813 811 811 812 812 812 813 813 814 815 814 814 813 813 813 813
837 836 836 836 835 834 833 832 832 832 832 831 831 831 830 830 830 829 828 827 825 824 822 821 820 818 817 817 817 816 816 816 817 817 818 818 818 817 816 816 817 819 818 818 817 816 816 816 815 814 813 813 812 812 812 813 813 812 811 811 811 812 812 812 812 812 812 812 811 810 808 808 807 807 807 808 809 810 811 810 810 809 809 808 808
836 836 835 835 835 835 834 832 832 832 831 831 830 829 829 828 828 827 826 825 824 823 821 820 819 818 817 817 816 816 815 814 814 814 813 813 812 812 811 811 812 814 814 814 814 814 814 813 812 811 810 809 809 809 808 808 808 808 808 808 808 808 808 808 808 808 808 808 807 806 805 805 804 803 803 804 806 807 807 806 806 806 805 804 804
835 835 835 835 834 835 834 832 832 832 831 830 829 828 828 827 826 826 825 824 823 822 820 819 818 817 817 816 816 815 814 813 813 812 812 812 812 812 812 812 811 810 810 810 811 811 810 809 808 807 807 806 805 805 804 804 804 804 805 805 804 804 804 803 803 803 803 803 803 802 801 802 802 801 800 801 802 802 803 803 803 803 803 802 801
835 835 835 834 834 834 833 832 832 831 830 829 828 828 827 827 826 825 824 824 823 822 821 819 818 817 816 815 815 814 813 813 812 811 811 812 812 812 811 810 809 808 807 806 807 807 806 806 805 803 803 802 802 801 800 800 801 801 801 801 801 800 800 800 800 799 798 798 798 798 798 798 799 799 798 798 798 797 798 798 798 799 799 800 799
835 834 834 834 834 833 833 833 832 831 830 829 828 828 827 827 826 825 824 823 823 822 821 819 818 817 815 814 813 812 812 811 811 810 810 811 811 810 809 807 806 806 805 804 804 804 803 803 801 800 799 798 797 796 795 795 796 796 796 797 797 797 797 797 797 796 795 793 793 793 793 794 795 795 795 795 793 792 794 794 794 793 794 796 796
835 834 834 834 833 833 833 832 831 830 830 830 829 828 827 827 826 825 825 824 822 821 820 819 817 816 815 813 812 810 810 810 810 810 810 810 808 807 807 806 805 804 803 802 802 802 801 800 798 797 796 794 793 792 791 790 791 791 791 791 791 792 792 793 794 792 791 789 788 787 787 789 789 790 791 791 790 790 792 792 791 789 789 791 791
834 834 833 832 832 832 832 831 831 831 831 830 830 829 828 827 826 825 825 824 823 821 820 818 817 816 814 813 812 810 809 809 810 811 811 810 809 807 807 806 805 802 801 801 800 799 798 797 796 795 793 791 789 787 786 786 786 786 786 787 787 787 787 787 787 786 786 786 786 784 784 784 784 785 787 787 787 789 792 792 791 788 787 787 785
834 834 833 832 832 831 831 831 831 831 831 830 830 829 828 827 826 825 824 823 822 821 820 818 817 815 813 812 812 811 810 809 809 810 810 809 808 807 806 804 803 801 799 798 797 796 795 794 793 792 791 789 786 784 782 782 781 780 781 782 783 783 783 782 782 782 782 783 782 781 782 781 781 781 782 782 783 785 789 790 791 790 788 785 782
834 833 833 833 832 832 832 832 831 831 830 829 829 828 827 826 825 825 824 822 821 820 819 817 816 815 813 812 810 810 809 808 808 808 807 806 805 804 803 802 801 799 797 796 794 793 792 791 789 788 788 787 784 782 781 779 777 775 776 778 780 780 780 779 779 779 779 779 779 779 779 778 778 778 779 779 780 783 785 786 788 789 788 785 781
834 833 833 833 832 832 832 831 831 831 829 828 828 827 826 824 823 822 822 821 820 818 817 816 814 813 812 811 810 808 807 807 806 805 804 803 802 801 800 799 798 797 795 793 791 790 790 789 787 785 785 783 781 781 780 779 776 773 772 772 774 775 776 777 777 777 777 776 776 776 776 776 776 775 776 777 778 779 780 781 783 784 784 782 779
834 834 833 833 832 832 832 831 831 830 829 828 827 826 825 824 822 820 818 818 817 817 816 814 813 811 811 810 809 808 806 805 804 803 802 801 799 798 797 796 795 794 792 790 788 787 787 786 784 782 782 780 778 778 778 777 776 774 772 771 770 770 771 772 773 774 774 774 774 774 773 773 773 772 772 773 773 774 775 775 776 778 778 777 773
835 834 834 833 832 832 831 831 830 830 829 828 827 826 825 824 822 820 817 815 814 813 813 812 812 810 809 809 808 806 805 804 802 801 800 799 797 796 793 792 791 790 789 787 786 784 784 783 781 780 778 777 776 775 774 773 773 773 771 770 769 767 767 767 768 769 769 769 769 768 768 769 769 768 768 768 768 767 766 766 768 769 768 766 761
835 834 834 833 833 832 831 831 830 830 829 828 827 826 825 823 822 820 818 816 814 812 811 810 810 809 808 807 805 804 803 802 801 800 799 797 796 794 792 789 788 787 786 785 784 782 782 781 779 777 776 774 773 772 771 770 769 768 767 766 765 764 764 763 763 762 763 763 763 763 763 764 765 764 764 762 761 760 759 759 760 760 759 759 756
835 834 834 833 832 832 831 831 830 829 829 827 827 826 825 823 822 820 818 817 815 812 810 809 808 808 806 805 803 802 802 801 800 799 797 796 794 793 791 789 787 786 785 784 783 781 780 779 777 775 774 772 771 770 768 767 765 764 763 762 761 760 760 759 758 757 757 758 759 759 760 760 760 759 759 757 755 754 752 751 752 754 756 757 756
835 835 834 833 832 832 831 830 830 829 828 827 826 826 824 823 822 820 818 817 815 813 811 809 807 806 805 804 802 801 800 799 798 797 796 794 793 792 791 789 788 786 785 784 782 781 780 779 778 776 774 772 771 769 767 765 763 761 759 757 756 755 754 753 753 752 753 754 754 755 755 754 753 753 752 750 747 746 745 746 749 752 752 751 748
835 834 833 833 832 832 831 830 829 828 828 827 826 825 824 822 821 819 818 816 814 813 811 809 807 806 804 803 802 800 799 797 796 794 793 792 791 790 790 789 788 786 785 784 783 781 779 778 777 775 774 772 771 769 767 764 762 759 757 755 752 751 749 749 748 748 749 750 750 750 749 749 748 747 745 743 742 741 742 743 745 745 743 739 738
835 834 833 833 832 831 831 830 829 828 827 826 825 824 823 822 820 819 817 816 814 812 811 809 807 806 804 802 801 799 798 796 795 793 792 791 790 790 789 788 787 786 785 783 782 781 779 778 776 774 773 771 769 768 766 764 762 759 756 754 752 750 748 747 747 746 746 745 745 744 744 743 743 742 742 740 739 738 737 738 738 736 732 730 732
835 834 834 833 832 831 830 830 829 828 827 826 825 824 822 821 819 818 817 815 813 812 810 809 807 805 804 802 801 799 798 796 795 794 792 791 790 790 789 789 788 787 785 784 782 780 779 777 775 773 771 769 768 766 764 762 760 758 756 754 752 750 749 748 746 744 743 741 740 740 739 739 739 739 739 738 736 735 734 734 733 730 726 726 729
834 834 833 832 832 831 830 829 828 827 826 826 824 823 822 820 819 817 816 814 813 811 810 808 806 804 803 802 801 800 798 796 795 794 792 791 790 790 790 789 789 788 786 784 782 780 778 777 775 773 770 768 766 764 762 760 758 756 755 754 752 750 748 747 746 743 741 739 738 737 737 737 737 737 736 735 734 733 732 730 728 725 723 725 728
833 833 832 831 831 830 829 828 827 826 826 825 824 822 821 819 818 817 815 814 812 811 809 807 805 803 802 801 800 799 798 796 794 793 792 791 790 790 790 790 789 788 787 785 783 781 778 776 774 772 770 768 766 763 761 759 757 755 754 752 750 748 747 746 745 742 740 738 737 736 736 736 736 735 734 732 731 730 728 726 724 723 724 725 728
833 832 832 831 830 829 828 828 827 826 825 824 823 822 820 819 817 816 814 813 811 810 808 806 804 803 801 800 799 798 796 795 793 792 791 790 789 789 789 789 788 787 786 785 783 782 779 776 774 772 770 768 766 763 761 759 757 755 753 750 748 747 745 744 743 741 739 737 736 735 733 733 732 732 731 730 729 728 726 725 724 724 724 725 727
832 831 831 831 830 829 828 827 826 825 824 822 821 820 819 818 816 815 813 812 811 809 807 805 803 802 800 799 798 797 795 793 792 791 790 790 789 788 788 787 786 785 784 783 782 781 779 776 774 771 769 767 765 763 761 758 756 754 752 749 747 745 743 742 741 739 737 735 733 731 730 729 727 727 726 726 726 726 725 724 724 724 724 725 725
831 830 830 829 828 827 826 825 824 823 822 821 820 819 818 817 815 814 812 811 809 807 806 804 803 801 799 798 797 796 794 792 790 789 789 788 788 787 786 785 784 783 782 781 780 779 777 775 773 770 768 766 763 761 759 757 755 753 751 749 747 744 742 740 738 736 735 733 731 729 727 725 723 723 722 722 723 723 722 721 721 721 721 721 721
830 829 828 827 827 825 824 824 823 822 821 820 819 818 817 816 814 812 811 810 808 806 805 803 801 800 798 797 796 794 793 791 790 788 788 787 786 785 784 783 782 781 780 779 778 777 775 774 772 770 767 765 762 760 758 755 753 751 749 747 745 743 740 738 736 734 733 731 729 727 725 723 721 720 719 719 719 718 717 717 717 716 716 716 715
828 827 826 826 825 824 823 822 822 821 820 819 818 816 815 814 813 811 810 808 807 805 803 801 800 799 798 796 795 793 792 790 788 787 787 786 785 784 783 782 780 779 778 777 776 775 774 772 770 768 766 764 761 759 756 753 751 749 747 745 743 740 738 736 733 731 730 729 727 725 724 722 719 718 717 716 715 714 713 713 712 711 711 711 710
826 826 825 824 823 823 822 821 820 819 818 817 816 815 814 813 811 810 808 807 805 804 802 801 799 798 797 795 794 792 790 789 787 786 785 784 783 783 781 780 779 778 776 775 773 772 771 770 768 767 765 763 760 758 755 752 749 747 745 742 740 738 735 733 731 728 727 726 724 723 721 720 718 716 714 714 713 711 710 709 707 706 706 706 705
826 825 824 823 822 822 821 820 819 818 817 816 815 814 812 811 810 808 807 805 804 802 801 799 798 797 795 794 792 791 789 788 786 785 784 783 782 781 780 779 778 776 775 773 771 770 769 768 767 765 763 762 760 757 754 751 748 745 743 740 738 735 733 731 728 726 725 723 721 720 718 717 715 713 712 711 710 708 707 706 704 702 702 701 700
825 824 823 823 822 821 820 819 818 817 816 815 814 812 811 810 808 807 805 804 802 801 799 798 797 796 794 792 791 789 788 786 785 784 783 782 781 780 779 778 776 775 773 772 770 768 767 766 765 763 762 760 758 755 753 750 747 744 741 739 736 733 731 728 726 724 722 720 718 717 715 714 712 711 709 708 707 705 704 702 700 699 698 697 696
824 823 822 822 821 820 819 818 817 816 815 814 812 811 810 808 807 805 804 802 801 799 798 797 795 794 792 791 789 788 786 785 784 783 782 781 780 779 778 777 775 774 772 770 768 766 765 764 763 762 760 758 756 754 751 748 745 742 740 737 734 732 729 727 724 722 720 718 716 714 713 711 710 709 707 706 704 702 700 699 697 697 696 694 693